Location: R�o Tuerlos
(40.6704°N, 4.4622°W)
Time: 06:19:35
(UTC+00:00)

Cosmos 2360 Rocket - Pass Details

Date: 07 June 2020
Orbit: 832 x 846 km, 71.0° (Epoch: 04 July)

Event Time Altitude Azimuth Distance (km) Brightness Sun altitude
Exits shadow 04:07:23 - 247° (WSW) 2,670 4.2 -7.0°
Reaches altitude 10° 04:08:08 10° 251° (WSW) 2,443 4.0 -6.9°
Maximum altitude 04:12:40 25° 306° (NW) 1,642 3.6 -6.2°
Drops below altitude 10° 04:17:15 10° 0° (N) 2,461 5.2 -5.5°
Sets 04:20:10 0° 14° (NNE) 3,402 6.2 -5.1°
